This demonstration page uses our WeatherBlox Daily Observations layout. Learn more.

Left ArrowRight Arrow

Hourly Observations for October 11, 2018

Temp ( °F °C ) Dew Point ( °F °C ) Humidity (%) Winds ( mph kmh ) Pressure ( in mb ) Visibility ( mi km ) Precip ( " mm )
12:51 am 00:51 Mostly Clear 57 13.9 39 3.9 51 51 ESE 6 9 29.80 1009 10 16 0.00 0.00
1:51 am 01:51 Mostly Cloudy 58 14.4 38 3.3 48 48 E 7 11 29.79 1009 10 16 0.00 0.00
2:51 am 02:51 Clear 58 14.4 37 2.8 46 46 ESE 6 9 29.78 1009 10 16 0.00 0.00
3:51 am 03:51 Clear 60 15.6 38 3.3 44 44 ESE 7 11 29.78 1009 10 16 0.00 0.00
4:51 am 04:51 Mostly Clear 60 15.6 39 3.9 46 46 SE 10 17 29.80 1009 10 16 0.00 0.00
5:51 am 05:51 Partly Cloudy 60 15.6 41 5 50 50 SE 10 17 29.83 1010 10 16 0.00 0.00
6:51 am 06:51 Sunny 59 15 41 5 51 51 E 9 15 29.84 1011 10 16 0.00 0.00
7:51 am 07:51 Sunny 64 17.8 42 5.6 45 45 E 10 17 29.86 1011 10 16 0.00 0.00
8:51 am 08:51 Sunny 69 20.6 45 7.2 42 42 E 13 20 29.87 1012 10 16 0.00 0.00
9:51 am 09:51 Mostly Sunny 73 22.8 47 8.3 40 40 SE 12 19 29.85 1011 10 16 0.00 0.00
10:51 am 10:51 Sunny 74 23.3 47 8.3 38 38 VRB 6 9 29.84 1011 10 16 0.00 0.00
11:51 am 11:51 Mostly Sunny 78 25.6 48 8.9 35 35 SSE 10 17 29.81 1010 10 16 0.00 0.00
12:51 pm 12:51 Mostly Cloudy 77 25 48 8.9 36 36 SSE 12 19 29.79 1009 10 16 0.00 0.00
1:51 pm 13:51 Partly Cloudy 78 25.6 48 8.9 35 35 SSE 10 17 29.76 1008 10 16 0.00 0.00
2:51 pm 14:51 Cloudy 79 26.1 48 8.9 34 34 SE 7 11 29.74 1007 10 16 0.00 0.00
3:51 pm 15:51 Mostly Cloudy 79 26.1 46 7.8 31 31 S 8 13 29.73 1007 10 16 0.00 0.00
4:51 pm 16:51 Partly Cloudy 78 25.6 45 7.2 31 31 WNW 6 9 29.74 1007 10 16 0.00 0.00
5:51 pm 17:51 Mostly Cloudy 75 23.9 45 7.2 34 34 WNW 6 9 29.75 1007 10 16 0.00 0.00
6:51 pm 18:51 Mostly Clear 71 21.7 46 7.8 41 41 NW 7 11 29.76 1008 10 16 0.00 0.00
7:51 pm 19:51 Partly Cloudy 70 21.1 47 8.3 44 44 W 7 11 29.77 1008 10 16 0.00 0.00
8:51 pm 20:51 Mostly Cloudy 69 20.6 48 8.9 47 47 SW 3 6 29.79 1009 10 16 0.00 0.00
9:51 pm 21:51 Partly Cloudy 67 19.4 48 8.9 51 51 E 3 6 29.80 1009 10 16 0.00 0.00
10:51 pm 22:51 Clear 68 20 48 8.9 49 49 Calm 29.81 1009 10 16 0.00 0.00
11:51 pm 23:51 Clear 68 20 52 11.1 57 57 E 6 9 29.80 1009 10 16 0.00 0.00

Powered by AerisWeather